Regional Weather Roundup
Issued by NWS Kansas City/Pleasant Hill, MO

Home | Current Version | Previous Version | Graphics & Text | Print | Product List | Glossary Off
Versions: 1 2 3 4 5 6 7 8 9 10 11 12 13 14 15 16 17 18 19 20 21 22 23 24 25 26 27 28 29 30 31 32 33 34 35 36 37 38 39 40 41 42 43 44 45 46 47 48 49 50

000
ASUS43 KEAX 251110
RWREAX

WEATHER ROUNDUP FOR EASTERN KANSAS AND NORTHWEST MISSOURI
NATIONAL WEATHER SERVICE KANSAS CITY/PLEASANT HILL MO
500 AM CST THU DEC 25 2014

KSZ040-057-103>105-MOZ028-029-037-043-251200-
...KANSAS CITY METROPOLITAN AREA...

CITY           SKY/WX    TMP DP  RH WIND       PRES   REMARKS
K.C. INTL      PTCLDY    31  27  85 S12       29.77F WCI  22
K.C. DOWNTOWN  PTCLDY    33  28  81 S10       29.80F WCI  25
LEES SUMMIT    CLEAR     31  27  85 S10       29.81F WCI  22
OLATHE - IXD   PTCLDY    30  28  92 S13       29.79F WCI  20
OLATHE - OJC   FAIR      31  28  89 S9        29.79F WCI  23
LAWRENCE       MOCLDY    29  26  89 VRB5      29.78F WCI  24

$$

MOZ001>008-011>017-020>025-030>033-038>040-044>046-053-054-251200-
...NORTHERN AND CENTRAL MISSOURI...

CITY           SKY/WX    TMP DP  RH WIND       PRES   REMARKS
ST. JOSEPH     PTCLDY    31  26  82 S8        29.77S WCI  23
MOSBY          SUNNY     32  28  86 SE5       29.81S WCI  27
WARRENSBURG    CLEAR     30  28  93 S8        29.84F WCI  23
WHITEMAN AFB   CLEAR     30  27  90 S12       29.85S WCI  20
CLINTON        CLEAR     32  30  93 S7        29.87F WCI  26
SEDALIA        CLEAR     31  28  89 S10       29.87S WCI  22
WARSAW         NOT AVBL
MARSHALL       CLEAR     34  32  93 S9        29.86S WCI  26
CHILLICOTHE      N/A     32  28  85 S8        29.82F WCI  25
MOBERLY        CLEAR     32  28  86 S9        29.86R WCI  24
KIRKSVILLE     CLEAR     30  29  96 S9        29.83R WCI  22

$$

MOZ041-047>049-056>058-063>065-088>090-097-251200-
...EASTERN AND SOUTHERN MISSOURI...

CITY           SKY/WX    TMP DP  RH WIND       PRES   REMARKS
ST. LOUIS INTL MOCLDY    38  29  70 SW7       29.94S WCI  33
SPIRIT OF STL  PTCLDY    35  29  78 S5        29.94R WCI  31
COLUMBIA       CLEAR     30  28  92 S8        29.88S WCI  22
JEFFERSON CITY CLEAR     33  28  81 S6        29.92S WCI  28
MEXICO         CLEAR     34  34 100 S9        29.88S WCI  26
HANNIBAL       CLEAR     34  28  80 S8        29.89R WCI  27
ROLLA          CLEAR     30  27  88 S12       29.89S WCI  20
LEBANON        CLEAR     32  28  86 S7        29.91R WCI  26
OSAGE BEACH    CLEAR     30  27  86 S6        29.90R WCI  24
SPRINGFIELD    CLEAR     31  27  85 S12       29.89S WCI  22
BRANSON        CLEAR     32  28  86 CALM      29.93S
NEVADA         CLEAR     30  28  93 S10       29.86S WCI  21
JOPLIN         CLEAR     35  28  75 S14       29.88F WCI  26
WEST PLAINS    CLEAR     28  25  88 S6        29.97R WCI  22

$$

IAZ060-094-KSZ022-034>040-054-083-096-NEZ052-066-093-251200-
...KANSAS...SOUTHEAST NEBRASKA AND IOWA...

CITY           SKY/WX    TMP DP  RH WIND       PRES   REMARKS
TOPEKA         MOCLDY    35  27  72 S10       29.75F WCI  27
MANHATTAN      PTCLDY    36  24  62 S7        29.68F WCI  30
EMPORIA        PTCLDY    30  26  85 S22       29.72F WCI  17
CHANUTE        CLEAR     32  28  85 S12       29.81F WCI  23
WICHITA        MOCLDY    35  24  64 S17       29.69F WCI  25
OMAHA          CLOUDY    31  28  89 S12       29.65F WCI  22
LINCOLN        CLOUDY    33  26  75 S10       29.62F WCI  25
FALLS CITY     CLOUDY    32  26  78 S10       29.70F WCI  24
LAMONI         CLEAR     28  26  92 S9        29.74F WCI  19
DES MOINES     CLEAR     31  27  85 S12       29.73S WCI  22

$$



USA.gov is the U.S. government's official web portal to all federal, state and local government web resources and services.